Location: Anumalkud?ru
(16.4847°N, 80.6636°E)
Time: 15:04:23
(UTC+00:00)

Cosmos 1610 Rocket - Pass Details

Date: 11 April 2026
Orbit: 951 x 1002 km, 82.9° (Epoch: 11 May)

Event Time Altitude Azimuth Distance (km) Brightness Sun altitude
Rises 14:16:16 0° 181° (S) 3,712 7.4 -20.6°
Reaches altitude 10° 14:18:47 10° 180° (S) 2,762 6.7 -21.1°
Maximum altitude 14:25:08 81° 93° (E) 1,008 4.4 -22.6°
Drops below altitude 10° 14:31:26 10° 7° (N) 2,741 7.0 -24.0°
Sets 14:33:56 0° 6° (N) 3,683 7.7 -24.6°
